Find COSMIC 1-5

NORAD ID: 29049 Int'l Des: 2006-011 Owner: NSPO Country: TW operational
LEOCIRCULAR

リアルタイム位置

3D地球を読み込み中...

COSMIC 1-5について

説明を読み込み中...

次回通過

Passes for default location (London). Set your location on the main map for personalized predictions.

高度履歴

Loading altitude history...

軌道要素

1 29049U 06011C 26104.61982523 .00000264 00000-0 11451-3 0 9998
2 29049 72.0186 173.9231 0035180 315.4508 44.3802 14.31357729 43571
Epoch: Apr 14, 2026 • Age: 18 hours

現在のステータス

高度 771.7 km
速度 7.48 km/s
衛星直下点 -21.12°S, 176.7°W
打ち上げ日 Apr 15, 2006
運用期間 20 years
タイプ other

技術仕様

分類 Payload
質量 62.00 kg
乾燥質量 56.00 kg
総質量 62.00 kg
長さ 0.20 m
直径 1.00 m
スパン 4.30 m
形状 Cyl + 2 Pan
製造者 OSCD
バスタイプ Microstar
フェーズステータス In Orbit
所有者/国 NSPO/TW

Most Searched